Weather History for FAGG - January, 2014

Change the Weather History Date:

Friday, January 10, 2014

  Actual Average Record
Temperature  
Mean Temperature 63 °F -  
Max Temperature 66 °F 74 °F - ()
Min Temperature 60 °F 58 °F - ()
Degree Days  
Heating Degree Days 2    
Growing Degree Days 13 (Base 50)    
Moisture  
Dew Point 57 °F    
Average Humidity 78    
Maximum Humidity 94    
Minimum Humidity 61    
Precipitation  
Precipitation 0.03 in - - ()
Sea Level Pressure  
Sea Level Pressure 29.99 in    
Wind  
Wind Speed 7 mph ()    
Max Wind Speed 15 mph    
Max Gust Speed -    
Visibility 6.8 miles    
Events Rain    
T = Trace of Precipitation, MM = Missing Value Source: Averaged Metar Reports

Daily Weather History Graph

Daily Weather History Graph

Search for Another Location

Airport or City:

Trip Planner

Search our weather history database for the weather conditions in past years. The results will help you decide how hot, cold, wet, or windy it might be!

Date:

Astronomy

Jan. 10, 2014 Rise Set
Actual Time 5:30 AM SAST 7:45 PM SAST
Civil Twilight 5:01 AM SAST 8:14 PM SAST
Nautical Twilight 4:26 AM SAST 8:49 PM SAST
Astronomical Twilight 3:48 AM SAST 9:27 PM SAST
Moon 3:00 PM SAST (1/10) 1:06 AM SAST (1/10)
Length of Visible Light 15h 12m
Length of Day
14h 15m
Waxing Gibbous, 72% of the Moon is Illuminated
Jan 10
Waxing Gibbous
Jan 16
Full
Jan 24
Last Quarter
Jan 30
New
Feb 6
First Quarter

Hourly Weather History & Observations

Time (SAST) Temp. Dew Point Humidity Pressure Visibility Wind Dir Wind Speed Gust Speed Precip Events Conditions
12:00 AM 62.6 °F 57.2 °F 82% 29.86 in 6.2 mi NNW 4.6 mph - N/A   Partly Cloudy
2:00 AM 61 °F 57 °F 81% 29.86 in 12 mi NNW 3.5 mph - -  
2:00 AM 60.8 °F 57.2 °F 88% 29.86 in 6.2 mi North 3.5 mph - N/A   Scattered Clouds
3:00 AM 62.6 °F 59.0 °F 88% 29.86 in 6.2 mi NNW 4.6 mph - N/A   Mostly Cloudy
4:00 AM 62.6 °F 59.0 °F 88% 29.86 in 3.7 mi West 5.8 mph - N/A Rain Light Rain
5:00 AM 62 °F 59 °F 87% 29.89 in 12 mi WNW 8.1 mph - - Rain Light Rain
5:00 AM 62.6 °F 59.0 °F 88% 29.89 in 6.2 mi WNW 8.1 mph - N/A   Mostly Cloudy
6:00 AM 62.6 °F 60.8 °F 94% 29.89 in 5.0 mi West 9.2 mph - N/A Rain Light Rain
7:00 AM 62.6 °F 59.0 °F 88% 29.92 in 2.2 mi WSW 13.8 mph - N/A Rain Light Rain
8:00 AM 61 °F 58 °F 87% 29.98 in 2 mi WSW 15.0 mph - - Rain Light Rain
8:00 AM 60.8 °F 59.0 °F 94% 29.98 in 1.9 mi WSW 15.0 mph - N/A Rain Light Rain
9:00 AM 62.6 °F 59.0 °F 88% 30.01 in 6.2 mi WNW 13.8 mph - N/A   Mostly Cloudy
10:00 AM 66.2 °F 59.0 °F 78% 30.01 in 6.2 mi West 13.8 mph - N/A   Mostly Cloudy
11:00 AM 66 °F 57 °F 64% 30.03 in 12 mi WSW 11.5 mph - -   Partly Cloudy
11:00 AM 66.2 °F 57.2 °F 73% 30.01 in 6.2 mi WSW 11.5 mph - N/A   Mostly Cloudy
12:00 PM 64.4 °F 55.4 °F 73% 30.04 in 6.2 mi WNW 11.5 mph - N/A   Mostly Cloudy
1:00 PM 62.6 °F 55.4 °F 77% 30.04 in 6.2 mi NNW 9.2 mph - N/A   Mostly Cloudy
2:00 PM 64 °F 55 °F 65% 30.06 in 12 mi SW 3.5 mph - -   Mostly Cloudy
2:00 PM 64.4 °F 55.4 °F 73% 30.04 in 6.2 mi SW 3.5 mph - N/A   Mostly Cloudy
3:00 PM 64.4 °F 55.4 °F 73% 30.04 in 6.2 mi WSW 5.8 mph - N/A   Mostly Cloudy
4:00 PM 66.2 °F 55.4 °F 68% 30.04 in 6.2 mi SW 6.9 mph - N/A   Mostly Cloudy
5:00 PM 65 °F 55 °F 61% 30.04 in 12 mi SW 5.8 mph - -   Mostly Cloudy
5:00 PM 66.2 °F 55.4 °F 68% 30.04 in 6.2 mi SW 5.8 mph - N/A   Mostly Cloudy
6:00 PM 64.4 °F 53.6 °F 68% 30.04 in 6.2 mi SW 8.1 mph - N/A   Mostly Cloudy
7:00 PM 62.6 °F 57.2 °F 82% 30.06 in 6.2 mi SW 3.5 mph - N/A   Mostly Cloudy
8:00 PM 63 °F 55 °F 67% 30.09 in 12 mi SSW 8.1 mph - -   Mostly Cloudy
8:00 PM 62.6 °F 53.6 °F 72% 30.06 in 6.2 mi SSW 8.1 mph - N/A   Mostly Cloudy
9:00 PM 62.6 °F 55.4 °F 77% 30.09 in 6.2 mi West 2.3 mph - N/A   Mostly Cloudy
10:00 PM 60.8 °F 53.6 °F 77% 30.12 in 6.2 mi Variable 2.3 mph - N/A   Partly Cloudy
11:00 PM 60.8 °F 55.4 °F 82% 30.12 in 6.2 mi West 3.5 mph - N/A Rain Light Rain